Seaboard Ocean — A8SB7 — position and weather

sailwx.info

Track history (hours):
 
Tides and Currents Weather Stations Pressure Air Temp Water Temp Dewpoint Dewpoint Depression Visibility Wind Speed Wind Dir Waves Ship Positions

Seaboard Ocean

Last reported at 2018-Feb-21 22:30 UTC. Time now 2018-Feb-21 22:46 UTC.
Position N 25°46' W 080°10'.

Length 148 m; draft 7.4 m.

Type: Ship. MMSI: 636091731.

Date/timePositionNaut miles runAvg speedWind from/ knotsBaromVisibWave heightAir tempDewpointWater temp
2018-Feb-21 22:30N 25°46' W 080°10'0 0.0
2018-Feb-21 22:00N 25°46' W 080°10'0 0.0
2018-Feb-21 21:30N 25°46' W 080°10'0 0.0
2018-Feb-21 20:59N 25°46' W 080°10'0 0.0
2018-Feb-21 20:29N 25°46' W 080°10'0 0.0
2018-Feb-21 19:59N 25°46' W 080°10'0 0.0
2018-Feb-21 19:29N 25°46' W 080°10'0 0.0
2018-Feb-21 18:58N 25°46' W 080°10'0 0.0
2018-Feb-21 18:25N 25°46' W 080°10'0 0.0
2018-Feb-21 17:58N 25°46' W 080°10'0 0.0
2018-Feb-21 17:28N 25°46' W 080°10'0 0.0
2018-Feb-21 16:58N 25°46' W 080°10'0 0.0
2018-Feb-21 16:30N 25°46' W 080°10'0 0.0
2018-Feb-21 16:00N 25°46' W 080°10'0 0.0
2018-Feb-21 15:30N 25°46' W 080°10'0 0.0
2018-Feb-21 15:00N 25°46' W 080°10'0 0.0
2018-Feb-21 14:29N 25°46' W 080°10'0 0.0
2018-Feb-21 14:00N 25°46' W 080°10'1 1.5
2018-Feb-21 13:30N 25°46' W 080°10'5 9.1
2018-Feb-21 13:00N 25°46' W 080°04'5 9.4
2018-Feb-21 12:31N 25°43' W 080°01'713.2
2018-Feb-21 12:00N 25°37' W 079°58'713.6
2018-Feb-21 11:31N 25°31' W 079°55'713.5
2018-Feb-21 10:58N 25°24' W 079°53'  
2018-Feb-12 12:36N 16°13' W 062°02'216.0
2018-Feb-12 12:30N 16°14' W 062°02'816.2
2018-Feb-12 12:00N 16°22' W 062°02'816.1
2018-Feb-12 11:30N 16°30' W 062°02'816.3
2018-Feb-12 11:00N 16°38' W 062°01'816.4
2018-Feb-12 10:30N 16°46' W 062°01'816.5
2018-Feb-12 10:00N 16°55' W 061°59'817.0
2018-Feb-12 09:30N 17°03' W 061°58'713.1
2018-Feb-12 09:00N 17°09' W 061°55'4 7.5
2018-Feb-12 08:30N 17°07' W 061°51'0 0.0
2018-Feb-12 07:56N 17°08' W 061°51'0 0.0
2018-Feb-12 07:29N 17°08' W 061°51'0 0.0
2018-Feb-12 06:58N 17°08' W 061°51'0 0.0
2018-Feb-12 06:28N 17°08' W 061°51'0 0.0
2018-Feb-12 05:58N 17°08' W 061°51'0 0.0
2018-Feb-12 05:28N 17°08' W 061°51'0 0.0
2018-Feb-12 05:00N 17°08' W 061°51'0 0.0
2018-Feb-12 04:30N 17°08' W 061°51'0 0.0
2018-Feb-12 04:00N 17°08' W 061°51'0 0.0
2018-Feb-12 03:30N 17°08' W 061°51'0 0.0
2018-Feb-12 02:57N 17°08' W 061°51'0 0.0
2018-Feb-12 02:29N 17°08' W 061°51'0 0.0
2018-Feb-12 01:59N 17°08' W 061°51'0 0.0
2018-Feb-12 01:26N 17°08' W 061°51'0 0.0
2018-Feb-12 00:59N 17°08' W 061°51'0 0.0
2018-Feb-12 00:28N 17°08' W 061°51'0 0.0
2018-Feb-11 23:56N 17°08' W 061°51'0 0.1
2018-Feb-11 23:31N 17°07' W 061°51'1 2.1
2018-Feb-11 23:01N 17°08' W 061°52'510.0
2018-Feb-11 22:31N 17°10' W 061°57'  
Track history (hours):
 
Tides and Currents Weather Stations Pressure Air Temp Water Temp Dewpoint Dewpoint Depression Visibility Wind Speed Wind Dir Waves Ship Positions

Seaboard Ocean

Last reported at 2018-Feb-21 22:30 UTC. Time now 2018-Feb-21 22:46 UTC.
Position N 25°46' W 080°10'.

Length 148 m; draft 7.4 m.

Type: Ship. MMSI: 636091731.

Date/timePositionNaut miles runAvg speedWind from/ knotsBaromVisibWave heightAir tempDewpointWater temp
2018-Feb-21 22:30N 25°46' W 080°10'0 0.0
2018-Feb-21 22:00N 25°46' W 080°10'0 0.0
2018-Feb-21 21:30N 25°46' W 080°10'0 0.0
2018-Feb-21 20:59N 25°46' W 080°10'0 0.0
2018-Feb-21 20:29N 25°46' W 080°10'0 0.0
2018-Feb-21 19:59N 25°46' W 080°10'0 0.0
2018-Feb-21 19:29N 25°46' W 080°10'0 0.0
2018-Feb-21 18:58N 25°46' W 080°10'0 0.0
2018-Feb-21 18:25N 25°46' W 080°10'0 0.0
2018-Feb-21 17:58N 25°46' W 080°10'0 0.0
2018-Feb-21 17:28N 25°46' W 080°10'0 0.0
2018-Feb-21 16:58N 25°46' W 080°10'0 0.0
2018-Feb-21 16:30N 25°46' W 080°10'0 0.0
2018-Feb-21 16:00N 25°46' W 080°10'0 0.0
2018-Feb-21 15:30N 25°46' W 080°10'0 0.0
2018-Feb-21 15:00N 25°46' W 080°10'0 0.0
2018-Feb-21 14:29N 25°46' W 080°10'0 0.0
2018-Feb-21 14:00N 25°46' W 080°10'1 1.5
2018-Feb-21 13:30N 25°46' W 080°10'5 9.1
2018-Feb-21 13:00N 25°46' W 080°04'5 9.4
2018-Feb-21 12:31N 25°43' W 080°01'713.2
2018-Feb-21 12:00N 25°37' W 079°58'713.6
2018-Feb-21 11:31N 25°31' W 079°55'713.5
2018-Feb-21 10:58N 25°24' W 079°53'  
2018-Feb-12 12:36N 16°13' W 062°02'216.0
2018-Feb-12 12:30N 16°14' W 062°02'816.2
2018-Feb-12 12:00N 16°22' W 062°02'816.1
2018-Feb-12 11:30N 16°30' W 062°02'816.3
2018-Feb-12 11:00N 16°38' W 062°01'816.4
2018-Feb-12 10:30N 16°46' W 062°01'816.5
2018-Feb-12 10:00N 16°55' W 061°59'817.0
2018-Feb-12 09:30N 17°03' W 061°58'713.1
2018-Feb-12 09:00N 17°09' W 061°55'4 7.5
2018-Feb-12 08:30N 17°07' W 061°51'0 0.0
2018-Feb-12 07:56N 17°08' W 061°51'0 0.0
2018-Feb-12 07:29N 17°08' W 061°51'0 0.0
2018-Feb-12 06:58N 17°08' W 061°51'0 0.0
2018-Feb-12 06:28N 17°08' W 061°51'0 0.0
2018-Feb-12 05:58N 17°08' W 061°51'0 0.0
2018-Feb-12 05:28N 17°08' W 061°51'0 0.0
2018-Feb-12 05:00N 17°08' W 061°51'0 0.0
2018-Feb-12 04:30N 17°08' W 061°51'0 0.0
2018-Feb-12 04:00N 17°08' W 061°51'0 0.0
2018-Feb-12 03:30N 17°08' W 061°51'0 0.0
2018-Feb-12 02:57N 17°08' W 061°51'0 0.0
2018-Feb-12 02:29N 17°08' W 061°51'0 0.0
2018-Feb-12 01:59N 17°08' W 061°51'0 0.0
2018-Feb-12 01:26N 17°08' W 061°51'0 0.0
2018-Feb-12 00:59N 17°08' W 061°51'0 0.0
2018-Feb-12 00:28N 17°08' W 061°51'0 0.0
2018-Feb-11 23:56N 17°08' W 061°51'0 0.1
2018-Feb-11 23:31N 17°07' W 061°51'1 2.1
2018-Feb-11 23:01N 17°08' W 061°52'510.0
2018-Feb-11 22:31N 17°10' W 061°57'  

Dump ship's entire track history